User: anonymous   Login
Location: Vancouver
(49.2500°N, 123.1330°W)
Time: 02:46:53
(UTC-08:00)
Language:

Cosmos 676 Rocket - Orbit

View from above orbital plane
View from above orbital plane
View from above satellite
View from above satellite

Ground track
Ground track

The orbit data is extracted from the following two-line orbital elements,

1 07434U 74071B   18053.21192847  .00000039  00000-0  22002-4 0  9990
2 07434  74.0467 114.8607 0021554 320.9255  39.0340 14.36663478272613
Epoch (UTC): 22 February 2018 05:05:10
Eccentricity: 0.0021554
inclination: 74.0467°
perigee height: 754 km
apogee height: 785 km
right ascension of ascending node: 114.8607°
argument of perigee: 320.9255°
revolutions per day: 14.36663478
mean anomaly at epoch: 39.0340°
orbit number at epoch: 27261

The dashed part of the orbit path shows where the satellite is in the earth's shadow,  

DLR